Showing default

IRIDIUM 120, 42805

Orbit data source: Space-Track

IRIDIUM 120, 42805 is a payload satellite owned by Iridium (US) in LEO that was launched on Sun, 25 Jun 2017 UTC via an FALCON 9 launch vehicle from the Air Force Western Test Range (AFWTR). Payload-class satellites include a variety of spacecraft equipped with specific instruments for various scientific and technological missions. These include communications satellites like Starlink; space stations such as the ISS; scientific satellites like the Hubble; Earth observation satellites from companies like Planet Labs, Umbra, and HawkEye 360; GPS; miniature CubeSats for education and research; and military/defense satellites.

Loading next visibility...
Identifier
42805, 2017-039C
Orbit
LEO
Country
Flag of USUS
Related business
Manufacturer
OATK SSG Gilbert
Mission
Operational Commercial Communications
Bus & Motor
ELITEBUS, Unknown motor
Mass
860 kg wet, 700 kg dry
Launch date (UTC)
2017-06-25 (8 years ago)
Launch vehicle
FALCON 9
Launch site
Air Force Western Test Range (AFWTR)
Object type
Payload
Rocket body
Debris
Shape & HBR
Trap Box + 2 Pan, 4.8 m
Radar Cross Section
10.154 m², Large (>1 m²)

Expand to show TLE details & history
Last TLE update: 1 day ago

TLE from 1 day ago
0 IRIDIUM 120
1 42805U 17039C   25304.74211852  .00000382  00000-0  12929-3 0  9992
2 42805  86.3948  57.4542 0001370  85.1773 274.9579 14.34220034438436
Epoch: 2025-10-31T17:48Z
TLE epoch observation values (Epoch: 2025-10-31T17:48:39.040Z)
Latitude
-0.00003°
Longitude
110.00934°
Altitude
780.626 km
Speed
7.464 km/s
True Right ascension
03h 49m 49s
True Declination
0° 00' 00"
Sunlit
Object was in full shadow at epoch
Visualization orbit readout
Latitude
Unknown
Longitude
Unknown
Altitude
Unknown
Speed
Unknown
Apparent Right ascension
Unknown
Apparent Declination
Unknown
Sunlit
N/A
Visualization observer readout
Local Sidereal Time
13:29:46
Azimuth
Unknown
Elevation
Unknown
Doppler factor
Unknown
Orbital elements
Apogee altitude
775.604 km
Perigee altitude
773.644 km
Semi-major axis
7,152.761 km
Eccentricity
0.00014
Inclination
86.3948°
RAAN
57.4542°
Arg. of periapsis
85.1773°
True anomaly
274.94226°
Mean anomaly
274.9579°
Eccentric anomaly
274.95008°
Mean motion
3.58784 °/min
Orbital period
100.34 mins
BSTAR
0.00012929
Loading maneuver chart data...
Computing Atmospheric mass density...
Loading historical data...
Loading historical data...
Loading historical data...
Loading historical data...
Loading historical data...
Loading historical data...
Loading historical data...

Documentation

Showing up to 5 results
|